Location: Dreilärchen
(47.9312°N, 8.6113°E)
Time: 22:29:19
(UTC+00:00)

BREEZE-M DEB (TANK) - Pass Details

Date: 26 May 2022
Orbit: 301 x 13680 km, 49.6° (Epoch: 03 July)

Event Time Altitude Azimuth Distance (km) Brightness Sun altitude
Exits shadow 02:46:28 - 227° (SW) 2,623 5.6 -7.3°
Reaches altitude 10° 02:46:54 10° 226° (SW) 2,409 5.4 -7.2°
Maximum altitude 02:51:06 37° 158° (SSE) 696 3.2 -6.7°
Drops below altitude 10° 02:53:18 10° 86° (E) 1,260 5.5 -6.4°
Sets 02:54:51 0° 76° (ENE) 2,008 7.0 -6.2°
